Tracking 19286 objects as of 19-Nov-2018
HD Live streaming from Space Station
objects crossing your sky now

SKYNET 4E

Track SKYNET 4E now!
SKYNET 4E is classified as:


NORAD ID: 25639
Int'l Code: 1999-009B
Perigee: 35,780.6 km
Apogee: 35,806.6 km
Inclination: 10.5 °
Period: 1,436.1 minutes
Semi major axis: 42164 km
RCS: 5.2477 m2 (large)
Launch date: February 26, 1999
Source: United Kingdom (UK)
Launch site: FRENCH GUIANA (FRGUI)

Used primarily by UK's armed forces, government departments, agencies and other organizations that require secure communications.
aabbcc
Your satellite tracking list
Your tracking list is empty




NASA's NSSDC Master Catalog

Two Line Element Set (TLE):
1 25639U 99009B   18322.92063454 -.00000022  00000-0  00000+0 0  9995
2 25639  10.5325  24.7839 0003081 209.2309 154.1118  1.00272352 72274
Source of the keplerian elements: AFSPC